Wind_Speed
15 15 16 16 17 17 17 18 18 18 18 16 15 14 14 15 12 14 10 5 7 6 7 1 23 21 20 21 16 12 3 8 7 3 5 12 12 19 27 26 27 16 30 32 26
16 16 17 17 18 18 19 18 18 18 17 16 15 14 14 14 14 14 8 8 9 12 10 6 27 20 10 9 14 8 6 9 4 8 5 15 19 16 17 22 26 29 31 26 24
17 18 18 18 19 19 19 19 19 18 16 15 14 13 13 13 12 6 4 8 10 12 9 9 15 21 11 8 13 12 6 13 6 21 4 10 6 25 23 7 29 35 34 29 24
18 18 19 19 20 20 19 19 19 17 15 14 13 12 12 8 3 1 3 8 11 11 7 10 15 24 7 10 14 12 14 3 19 15 16 6 12 13 19 20 36 34 32 29 24
19 19 19 20 20 20 19 18 18 16 14 12 11 9 10 5 10 5 8 9 11 11 7 10 22 18 8 7 7 9 9 25 24 29 24 17 15 8 7 32 34 33 29 27 24
19 20 20 21 21 20 19 18 17 14 13 11 10 8 7 5 5 9 13 13 12 11 6 9 14 17 15 14 10 9 18 9 16 10 17 18 3 4 13 30 32 34 29 28 24
20 20 20 21 22 20 19 17 16 12 10 9 8 6 9 14 3 8 11 6 11 7 7 11 15 16 21 6 17 14 3 10 14 10 7 24 3 4 3 5 29 29 29 27 26
21 21 21 21 22 21 18 16 14 12 9 6 6 7 8 3 8 7 10 2 4 10 13 16 13 15 14 22 10 2 7 5 6 10 7 6 4 6 7 5 28 28 28 25 26
21 21 21 21 21 21 17 15 13 10 8 6 3 6 10 5 13 15 12 9 7 10 11 12 12 13 20 7 5 3 3 11 7 19 10 4 5 18 11 5 22 28 28 26 27
21 21 20 21 20 20 14 14 9 8 5 7 9 8 7 12 14 9 12 11 14 9 12 15 14 6 6 0 7 8 2 6 3 11 9 23 2 16 11 10 16 31 30 29 29
21 20 19 19 18 16 8 13 8 3 9 10 7 9 12 4 3 7 12 11 11 8 4 17 3 8 14 11 13 11 9 13 5 17 11 17 10 10 15 12 19 28 32 29 26
21 20 18 17 15 8 9 10 7 9 12 18 24 25 24 11 4 10 13 13 10 5 9 7 8 15 16 5 12 9 11 4 5 9 13 13 8 12 10 15 25 31 30 32 25
20 19 18 14 10 2 9 8 12 12 6 17 21 23 22 15 11 13 18 17 9 7 10 8 13 14 13 10 10 6 8 1 1 3 1 9 8 8 11 24 33 33 39 37 32
19 17 16 12 5 7 2 6 9 8 3 6 7 11 19 15 10 23 21 18 9 11 10 9 17 12 12 7 6 8 10 5 7 7 4 5 3 4 4 13 17 26 36 38 36
18 16 11 12 8 7 6 6 11 8 4 10 7 10 11 13 1 12 19 25 10 10 6 12 9 9 9 6 9 10 10 7 3 4 8 4 5 7 7 8 13 21 34 39 40
16 15 10 11 10 2 8 13 11 1 5 6 9 7 6 13 19 10 14 21 18 9 11 11 25 7 5 5 6 8 8 9 8 5 4 4 4 7 7 18 16 18 33 41 39
14 14 12 11 4 3 3 9 1 3 5 5 6 11 11 11 9 7 8 5 5 4 8 10 15 13 9 4 5 8 4 3 5 5 7 10 1 12 8 10 16 17 25 36 47
11 11 8 5 10 2 8 3 4 7 12 8 9 6 4 6 10 10 8 7 9 10 6 5 10 13 12 10 9 7 4 5 3 5 7 8 3 7 8 13 24 29 27 32 41
6 3 0 6 5 4 5 3 4 8 10 10 11 7 9 10 7 9 11 9 10 12 9 4 10 10 7 6 9 8 5 9 3 6 3 4 1 7 9 9 14 21 22 32 36
3 5 6 1 4 2 2 5 3 7 8 7 5 8 9 3 7 5 5 9 9 11 14 9 5 8 5 4 3 6 4 6 4 1 1 4 5 3 1 9 10 12 21 23 33
7 5 5 7 5 6 3 5 4 16 7 6 10 10 13 10 13 4 6 7 10 3 4 4 1 10 7 1 5 4 4 4 2 3 2 3 5 3 18 5 9 10 27 25 27
7 3 5 6 5 6 4 4 2 8 5 4 4 6 8 10 8 10 9 7 19 13 4 8 1 4 8 12 7 9 8 8 5 9 4 4 5 11 19 4 16 16 24 25 25
10 7 5 7 3 5 8 4 3 2 9 10 7 10 13 8 6 11 15 15 10 6 4 7 4 5 10 9 9 6 7 7 3 1 6 5 5 7 7 9 18 17 17 20 20
7 2 6 9 16 10 8 8 7 8 4 3 6 11 7 8 9 7 11 14 14 6 6 2 3 5 5 9 8 6 8 6 4 2 5 3 7 5 7 9 11 11 11 12 12
7 6 12 4 9 9 11 10 10 7 4 4 4 6 5 5 8 10 15 15 23 4 2 5 4 7 11 11 7 9 13 18 6 8 4 3 14 10 9 10 12 15 10 7 8
9 8 12 15 19 6 4 6 6 12 11 11 9 13 9 8 7 12 13 15 5 12 11 6 4 5 7 12 14 6 17 19 12 14 18 12 7 10 17 24 21 14 15 14 13
21 11 9 12 11 7 9 12 15 15 9 19 18 12 6 11 19 19 20 24 17 9 10 7 3 4 4 11 10 3 14 8 5 14 11 1 7 8 11 11 20 18 14 11 11
Wind_Direction
349 346 342 342 340 339 338 336 335 331 326 324 319 314 311 307 300 291 267 283 290 259 312 12 141 149 117 183 171 212 316 339 290 197 231 136 115 111 125 137 142 140 141 146 148
344 342 341 339 338 338 337 336 335 332 328 324 320 315 314 308 304 280 227 246 266 276 297 266 165 179 213 168 158 151 165 229 214 331 260 149 132 137 145 111 121 130 138 145 155
342 339 338 337 336 336 336 335 335 333 329 324 320 316 314 320 321 279 282 234 253 264 278 268 266 255 183 185 180 185 183 171 277 168 103 23 109 103 95 102 136 140 142 156 164
339 337 335 335 333 333 334 334 335 333 331 326 321 318 311 312 3 325 320 251 256 250 262 278 287 277 147 204 193 67 291 177 112 63 54 360 81 350 149 139 141 143 149 160 168
337 335 333 331 331 331 331 332 334 332 332 330 324 318 312 297 272 269 269 277 241 234 253 285 294 322 342 321 181 31 357 24 349 93 97 85 26 312 306 134 141 146 154 160 169
333 332 331 329 328 328 328 328 329 330 330 331 322 314 300 267 288 290 290 248 215 221 242 274 288 347 330 46 67 35 61 279 331 92 115 108 132 97 84 137 141 149 161 166 174
328 328 329 328 326 325 324 324 323 323 322 328 321 307 270 236 256 310 326 205 198 211 254 290 342 350 320 339 89 142 104 335 307 294 91 124 83 264 101 138 146 158 165 174 177
326 325 326 326 325 323 322 320 315 312 305 312 311 314 263 325 215 237 282 250 187 233 273 301 322 316 294 300 286 332 90 228 245 203 172 135 260 237 234 228 154 167 172 178 184
323 323 322 324 326 323 323 316 310 304 293 280 287 306 276 248 226 243 226 224 227 245 261 279 297 290 294 303 346 53 186 221 132 205 129 55 349 334 318 256 168 171 177 182 190
321 322 320 322 326 325 328 324 318 294 299 267 235 298 245 244 241 183 201 225 229 233 253 258 265 258 277 276 285 270 315 352 206 164 125 92 23 305 250 261 227 175 181 189 195
319 320 319 321 326 328 354 10 352 22 314 237 262 245 289 150 132 192 197 216 253 281 250 256 243 250 253 218 222 269 256 230 115 166 115 135 165 235 241 256 240 181 183 193 191
316 317 318 321 324 319 327 344 23 330 298 276 258 255 264 285 224 207 207 198 228 241 271 300 252 250 267 206 218 241 255 288 283 96 116 157 190 213 220 233 221 184 182 185 192
313 315 318 322 321 314 319 314 330 338 284 291 234 231 238 243 225 242 201 213 226 224 247 236 259 270 266 257 289 278 238 300 77 303 116 165 147 218 219 206 176 190 183 182 188
314 314 317 322 293 290 337 353 329 327 300 260 178 220 221 215 264 236 216 203 218 241 244 235 255 271 293 295 316 312 305 32 21 6 277 139 221 227 195 202 174 190 175 184 185
315 311 314 311 287 274 347 355 328 311 332 152 145 150 171 190 179 199 216 198 221 230 238 259 272 274 277 276 288 264 296 335 342 292 46 347 81 266 166 225 195 174 178 183 186
314 308 305 293 277 277 338 335 316 287 240 156 143 184 201 201 259 250 195 206 216 255 283 270 288 274 272 330 337 313 302 346 329 26 341 358 80 284 181 198 188 191 181 181 181
313 301 290 268 213 62 310 305 276 241 296 141 185 160 186 201 227 173 183 201 197 222 257 271 262 273 256 234 292 291 312 322 39 67 253 281 67 230 271 170 179 182 189 169 176
313 300 286 261 212 235 332 308 258 325 13 23 10 319 232 202 205 207 176 202 215 230 277 249 290 240 241 193 195 262 188 169 204 192 241 345 251 270 144 96 166 170 181 166 168
318 337 315 69 190 129 298 265 335 15 20 357 335 298 278 234 213 183 197 208 209 194 197 284 283 311 226 176 160 274 304 237 244 283 70 228 40 38 107 101 101 140 155 162 161
328 284 283 123 91 107 265 274 297 63 9 356 325 318 327 312 156 187 226 218 228 204 195 240 265 286 306 118 220 168 257 8 347 235 316 331 59 63 124 137 150 149 156 158 176
359 325 145 157 160 246 245 256 19 0 68 342 333 328 333 352 338 183 239 264 214 124 34 292 102 298 3 279 186 311 277 278 187 158 185 119 282 58 333 182 146 158 158 161 169
342 265 160 154 211 230 239 265 352 308 343 254 292 309 301 343 336 349 359 44 26 31 30 357 59 317 274 289 229 215 226 196 134 278 222 161 273 189 204 105 85 114 158 163 169
339 267 150 184 269 308 304 355 140 320 350 350 346 359 350 356 356 339 338 332 63 51 50 0 338 348 319 326 313 250 233 222 238 182 250 139 215 147 95 59 87 102 106 142 154
348 291 156 206 250 266 328 340 3 129 300 37 343 321 329 320 309 299 310 308 316 132 135 60 271 233 233 258 311 333 347 220 209 301 276 225 149 115 93 87 67 71 90 117 120
360 25 9 328 334 354 1 337 325 325 76 48 289 294 353 1 340 354 358 342 355 92 242 134 256 293 286 313 345 337 338 9 250 237 204 247 127 129 117 111 92 81 85 122 135
17 356 336 299 311 287 268 293 339 11 16 355 331 350 8 27 28 342 346 335 329 336 342 347 326 328 321 347 348 345 21 4 5 7 6 142 95 103 115 115 97 82 79 58 59
10 350 306 296 306 333 14 0 354 8 346 338 357 349 338 343 344 337 311 290 286 300 306 316 326 24 311 326 6 8 353 352 332 38 347 140 244 138 117 126 127 113 96 79 54
Height
1527 1525 1522 1520 1518 1515 1513 1510 1508 1505 1502 1499 1497 1494 1492 1490 1489 1487 1487 1489 1492 1495 1498 1502 1512 1505 1503 1511 1510 1514 1523 1520 1505 1501 1488 1482 1482 1484 1488 1491 1498 1502 1509 1514 1519
1526 1524 1521 1519 1517 1514 1512 1509 1506 1503 1500 1498 1495 1493 1491 1488 1486 1484 1485 1486 1490 1493 1495 1496 1505 1501 1498 1501 1505 1513 1517 1516 1500 1504 1481 1480 1480 1482 1487 1491 1499 1505 1512 1517 1519
1525 1523 1520 1518 1515 1513 1511 1508 1505 1502 1499 1496 1494 1492 1490 1488 1486 1481 1482 1484 1488 1490 1492 1492 1491 1495 1499 1500 1497 1498 1498 1497 1487 1482 1482 1480 1480 1483 1493 1498 1497 1503 1510 1516 1520
1524 1521 1519 1516 1514 1511 1509 1506 1503 1500 1498 1495 1493 1491 1489 1489 1489 1482 1482 1484 1486 1488 1490 1489 1488 1486 1483 1487 1481 1496 1491 1490 1480 1487 1485 1489 1490 1492 1488 1494 1498 1505 1511 1516 1520
1523 1520 1517 1514 1511 1509 1507 1504 1502 1499 1496 1494 1492 1491 1490 1488 1483 1482 1482 1482 1484 1486 1488 1487 1484 1481 1481 1481 1488 1493 1488 1480 1487 1481 1488 1485 1486 1493 1495 1496 1500 1507 1513 1517 1521
1522 1519 1515 1513 1510 1507 1504 1502 1500 1497 1495 1493 1491 1490 1490 1489 1482 1481 1480 1480 1482 1484 1486 1484 1483 1481 1479 1485 1480 1477 1482 1484 1490 1488 1490 1488 1494 1494 1499 1500 1503 1508 1513 1517 1520
1520 1517 1514 1511 1508 1505 1502 1500 1498 1496 1494 1493 1491 1489 1489 1483 1482 1480 1478 1479 1482 1484 1485 1485 1487 1484 1482 1479 1477 1474 1484 1487 1490 1492 1491 1493 1500 1498 1498 1504 1504 1510 1512 1515 1517
1518 1514 1512 1509 1506 1502 1499 1497 1495 1494 1492 1491 1490 1489 1483 1480 1481 1482 1480 1481 1482 1484 1485 1486 1486 1485 1483 1479 1475 1473 1487 1507 1480 1490 1490 1484 1508 1494 1499 1505 1504 1508 1512 1514 1516
1516 1513 1510 1507 1503 1500 1497 1494 1492 1491 1490 1490 1490 1489 1483 1480 1480 1479 1481 1482 1483 1485 1486 1486 1485 1484 1480 1483 1485 1481 1501 1492 1483 1484 1483 1492 1511 1502 1500 1500 1502 1506 1508 1511 1513
1514 1511 1507 1505 1502 1498 1495 1492 1489 1488 1489 1488 1489 1492 1481 1476 1475 1477 1480 1481 1483 1484 1485 1485 1484 1484 1481 1488 1506 1495 1494 1493 1482 1487 1482 1500 1512 1490 1487 1494 1500 1500 1504 1507 1509
1512 1508 1506 1503 1501 1497 1494 1491 1492 1491 1488 1485 1482 1479 1475 1476 1477 1478 1479 1481 1482 1482 1486 1481 1489 1496 1480 1475 1470 1470 1479 1484 1462 1471 1478 1491 1488 1474 1480 1488 1496 1496 1499 1503 1506
1509 1506 1504 1501 1499 1497 1495 1494 1495 1496 1485 1479 1477 1476 1473 1476 1476 1477 1479 1481 1482 1488 1483 1487 1493 1471 1464 1463 1468 1470 1475 1472 1460 1458 1469 1489 1490 1478 1481 1483 1489 1490 1494 1498 1502
1507 1504 1502 1499 1497 1497 1495 1494 1494 1493 1489 1470 1468 1469 1472 1475 1474 1474 1477 1478 1480 1485 1484 1492 1477 1466 1464 1465 1467 1467 1472 1467 1469 1458 1457 1473 1490 1489 1476 1476 1480 1484 1487 1492 1496
1505 1502 1500 1497 1498 1495 1494 1495 1495 1493 1496 1470 1463 1465 1468 1472 1471 1468 1473 1476 1478 1483 1479 1480 1466 1465 1464 1466 1463 1480 1454 1457 1463 1477 1499 1467 1513 1479 1475 1473 1472 1478 1483 1488 1490
1502 1500 1499 1497 1495 1494 1494 1493 1493 1492 1514 1459 1461 1463 1464 1468 1462 1464 1467 1471 1476 1476 1475 1481 1469 1468 1470 1464 1459 1471 1452 1459 1459 1473 1489 1479 1499 1480 1470 1477 1468 1469 1474 1480 1484
1500 1498 1497 1495 1494 1494 1493 1492 1493 1503 1506 1459 1457 1461 1464 1465 1464 1463 1465 1468 1470 1473 1470 1470 1460 1459 1457 1454 1454 1453 1457 1462 1466 1482 1511 1482 1500 1489 1472 1461 1459 1460 1467 1472 1482
1497 1495 1493 1493 1493 1493 1493 1492 1502 1506 1450 1460 1460 1456 1460 1464 1463 1463 1466 1470 1481 1492 1492 1472 1463 1453 1452 1459 1456 1459 1472 1515 1525 1539 1539 1482 1500 1482 1452 1443 1447 1454 1459 1466 1475
1494 1492 1491 1490 1492 1493 1493 1494 1506 1467 1465 1451 1454 1452 1459 1454 1460 1459 1465 1476 1467 1473 1485 1494 1492 1457 1446 1456 1466 1466 1472 1513 1520 1549 1515 1480 1491 1472 1440 1438 1440 1448 1455 1462 1470
1492 1491 1490 1491 1492 1494 1495 1502 1485 1471 1466 1467 1462 1466 1462 1452 1453 1457 1463 1466 1460 1461 1487 1485 1478 1442 1438 1441 1451 1464 1479 1460 1480 1478 1498 1482 1465 1450 1442 1444 1446 1451 1455 1459 1466
1492 1492 1490 1492 1493 1494 1496 1494 1475 1467 1468 1468 1478 1466 1470 1455 1456 1454 1458 1449 1451 1447 1450 1461 1484 1449 1444 1440 1444 1453 1451 1488 1489 1503 1506 1494 1484 1481 1460 1452 1448 1451 1454 1457 1463
1494 1494 1492 1493 1495 1496 1499 1483 1469 1470 1470 1474 1476 1474 1468 1466 1457 1456 1456 1444 1437 1440 1443 1448 1461 1467 1450 1454 1459 1462 1469 1466 1475 1484 1508 1517 1506 1465 1460 1446 1449 1450 1452 1455 1460
1496 1494 1493 1494 1496 1490 1486 1474 1474 1473 1471 1470 1469 1468 1470 1465 1465 1461 1460 1451 1444 1444 1458 1453 1459 1482 1469 1445 1442 1445 1455 1462 1498 1495 1483 1488 1499 1457 1459 1446 1446 1450 1452 1456 1458
1497 1495 1493 1494 1499 1489 1476 1472 1472 1474 1474 1473 1471 1469 1467 1469 1478 1465 1459 1454 1450 1452 1461 1460 1477 1500 1485 1464 1446 1450 1446 1446 1454 1464 1482 1500 1487 1445 1448 1450 1450 1452 1456 1457 1459
1499 1494 1493 1492 1488 1486 1482 1478 1476 1474 1474 1475 1477 1474 1473 1475 1470 1472 1465 1455 1455 1454 1454 1457 1469 1483 1503 1485 1466 1462 1450 1442 1450 1478 1477 1474 1465 1457 1454 1456 1456 1457 1460 1461 1462
1504 1499 1502 1497 1490 1486 1485 1485 1483 1479 1475 1476 1477 1475 1476 1481 1478 1479 1471 1465 1459 1460 1455 1458 1478 1471 1467 1461 1459 1459 1454 1450 1456 1454 1467 1459 1459 1457 1455 1457 1459 1461 1463 1465 1464
1512 1511 1507 1501 1492 1488 1487 1487 1481 1483 1485 1484 1484 1479 1479 1486 1488 1490 1483 1479 1475 1463 1464 1458 1477 1468 1474 1462 1462 1463 1463 1455 1458 1458 1458 1446 1459 1447 1451 1455 1460 1463 1462 1466 1466
1518 1515 1513 1501 1497 1492 1494 1491 1490 1489 1487 1487 1489 1486 1483 1483 1485 1483 1482 1477 1474 1473 1471 1470 1473 1482 1491 1473 1472 1480 1475 1468 1467 1467 1466 1478 1459 1446 1451 1458 1461 1464 1466 1468 1468